Location: Ergnies
(50.0854°N, 2.0375°E)
Time: 06:55:18
(UTC+00:00)

Cosmos 1269 Rocket - Pass Details

Date: 14 January 2026
Orbit: 769 x 775 km, 74.1° (Epoch: 10 February)

Event Time Altitude Azimuth Distance (km) Brightness Sun altitude
Rises 06:52:03 0° 220° (SW) 3,241 7.1 -8.4°
Reaches altitude 10° 06:54:31 10° 226° (SW) 2,319 6.3 -8.0°
Maximum altitude 06:59:36 48° 301° (WNW) 1,013 4.3 -7.3°
Drops below altitude 10° 07:04:44 10° 15° (NNE) 2,335 6.4 -6.5°
Sets 07:07:13 0° 22° (NNE) 3,266 7.2 -6.2°
